GFSNGP_500_temp_291.txt.gz
Temp
-21 -22 -21 -21 -21 -20 -20 -20 -20 -20 -20 -20 -19 -18 -17 -17 -17 -17 -17 -17 -16 -16 -17 -17 -16 -16 -15 -15 -15 -16 -16 -15 -14 -15 -15 -14 -15 -15 -14 -14 -15 -14 -15 -15
-22 -22 -22 -22 -22 -21 -21 -21 -20 -20 -20 -20 -20 -19 -19 -18 -18 -17 -17 -18 -17 -17 -17 -16 -16 -16 -16 -15 -15 -16 -16 -15 -15 -15 -15 -15 -16 -15 -15 -15 -15 -15 -15 -15
-22 -22 -22 -22 -22 -22 -22 -22 -21 -21 -20 -20 -20 -20 -20 -20 -19 -19 -18 -18 -18 -18 -17 -17 -17 -16 -16 -16 -15 -16 -15 -15 -15 -15 -15 -15 -15 -16 -16 -16 -16 -16 -16 -16
-22 -22 -22 -22 -22 -22 -22 -22 -21 -21 -21 -21 -20 -20 -20 -20 -20 -20 -19 -19 -18 -18 -17 -17 -17 -17 -16 -16 -16 -16 -16 -15 -15 -15 -15 -15 -15 -15 -16 -16 -16 -16 -16 -16
-24 -23 -22 -22 -22 -23 -23 -23 -23 -22 -21 -21 -21 -21 -21 -20 -20 -20 -20 -20 -19 -18 -17 -17 -17 -17 -17 -17 -16 -16 -16 -16 -16 -15 -15 -16 -16 -16 -17 -17 -17 -16 -17 -17
-25 -24 -23 -23 -24 -24 -24 -24 -23 -23 -22 -22 -21 -21 -21 -20 -20 -20 -20 -20 -19 -19 -18 -18 -18 -18 -18 -17 -17 -16 -16 -16 -16 -16 -16 -16 -17 -17 -17 -17 -17 -17 -17 -17
-26 -25 -25 -24 -25 -25 -26 -25 -24 -24 -23 -22 -22 -22 -22 -21 -21 -20 -20 -20 -20 -19 -19 -19 -19 -18 -18 -17 -17 -17 -17 -16 -16 -16 -17 -17 -17 -17 -17 -17 -17 -18 -18 -18
-28 -27 -26 -26 -26 -27 -27 -26 -25 -25 -24 -23 -22 -22 -22 -22 -21 -21 -21 -21 -20 -20 -19 -19 -19 -19 -18 -18 -17 -17 -18 -17 -17 -18 -18 -17 -17 -17 -18 -18 -18 -18 -18 -18
-29 -28 -28 -28 -28 -28 -27 -27 -26 -26 -25 -24 -23 -23 -23 -22 -22 -22 -22 -21 -21 -20 -20 -20 -20 -19 -19 -18 -17 -17 -17 -17 -17 -17 -18 -18 -18 -17 -18 -18 -18 -18 -18 -18
-30 -29 -29 -29 -28 -28 -28 -27 -27 -27 -26 -25 -24 -25 -24 -24 -23 -22 -22 -22 -21 -21 -20 -20 -19 -19 -19 -19 -18 -18 -17 -17 -17 -17 -17 -18 -18 -18 -18 -18 -18 -18 -18 -18
-29 -29 -29 -29 -29 -29 -29 -28 -27 -27 -27 -26 -26 -26 -25 -25 -25 -23 -23 -22 -21 -20 -20 -20 -20 -20 -20 -19 -19 -19 -19 -18 -18 -17 -17 -18 -18 -18 -18 -18 -18 -18 -18 -19
-29 -31 -30 -29 -30 -30 -29 -29 -28 -27 -27 -27 -27 -27 -27 -26 -26 -25 -25 -23 -22 -21 -21 -21 -20 -20 -20 -20 -20 -19 -19 -19 -18 -17 -18 -18 -18 -18 -18 -18 -18 -18 -18 -18
-31 -32 -32 -30 -30 -30 -29 -29 -29 -29 -28 -27 -26 -26 -27 -27 -27 -27 -27 -26 -23 -22 -22 -22 -21 -21 -21 -20 -20 -19 -19 -19 -18 -18 -17 -18 -18 -18 -18 -19 -18 -18 -18 -18
-33 -32 -32 -32 -30 -30 -29 -28 -28 -28 -28 -27 -27 -26 -26 -26 -27 -27 -27 -26 -25 -23 -23 -21 -20 -20 -20 -20 -20 -18 -19 -19 -18 -19 -19 -19 -19 -19 -19 -18 -18 -18 -18 -18
-33 -33 -33 -32 -31 -30 -29 -29 -29 -28 -28 -28 -27 -27 -26 -26 -26 -26 -27 -27 -25 -24 -22 -22 -21 -21 -20 -20 -20 -20 -20 -19 -19 -19 -19 -19 -19 -19 -19 -19 -18 -19 -18 -18
-34 -34 -34 -33 -32 -32 -31 -31 -30 -29 -28 -28 -27 -27 -26 -26 -25 -26 -26 -26 -26 -25 -23 -22 -22 -21 -21 -20 -20 -20 -21 -20 -19 -19 -19 -19 -19 -19 -19 -18 -18 -19 -19 -19
-34 -34 -34 -34 -33 -33 -33 -32 -31 -31 -30 -30 -29 -28 -27 -27 -26 -25 -26 -26 -26 -25 -24 -22 -22 -22 -20 -20 -20 -20 -21 -20 -20 -19 -19 -19 -19 -19 -19 -19 -19 -18 -19 -19
-35 -35 -34 -33 -33 -33 -33 -33 -32 -31 -31 -30 -30 -29 -29 -27 -26 -26 -25 -26 -26 -25 -24 -24 -23 -22 -21 -20 -20 -20 -20 -19 -20 -20 -20 -19 -20 -20 -20 -19 -19 -19 -19 -20
-34 -35 -34 -33 -33 -32 -32 -32 -32 -31 -31 -30 -30 -30 -29 -28 -27 -26 -26 -26 -26 -26 -24 -24 -23 -23 -22 -22 -21 -20 -21 -20 -20 -21 -20 -20 -20 -20 -20 -20 -20 -20 -20 -20
-35 -34 -34 -33 -33 -33 -32 -32 -32 -31 -31 -31 -31 -30 -30 -29 -29 -28 -27 -25 -25 -26 -26 -24 -24 -23 -23 -22 -21 -20 -21 -21 -21 -21 -21 -20 -20 -20 -20 -20 -20 -20 -20 -20
-35 -34 -33 -33 -33 -33 -32 -32 -32 -31 -31 -31 -31 -30 -30 -30 -30 -28 -27 -25 -24 -26 -26 -25 -24 -24 -24 -22 -21 -20 -20 -21 -21 -21 -20 -20 -20 -20 -20 -20 -21 -20 -20 -20
-34 -33 -33 -33 -32 -32 -31 -31 -30 -30 -30 -30 -30 -30 -30 -29 -29 -30 -28 -25 -25 -25 -26 -26 -25 -24 -23 -22 -21 -21 -21 -21 -21 -21 -21 -20 -21 -21 -21 -21 -21 -21 -21 -21
-33 -32 -32 -32 -31 -31 -31 -31 -31 -31 -30 -30 -30 -30 -29 -28 -28 -28 -28 -27 -26 -25 -25 -26 -25 -24 -22 -23 -21 -22 -22 -22 -21 -22 -21 -21 -21 -21 -21 -21 -21 -21 -21 -21
-32 -32 -31 -31 -31 -31 -31 -31 -30 -30 -30 -29 -29 -29 -28 -28 -28 -28 -28 -28 -28 -26 -25 -25 -25 -24 -22 -23 -22 -23 -23 -22 -22 -22 -22 -22 -21 -21 -21 -21 -21 -21 -21 -21
-31 -31 -31 -31 -30 -30 -30 -30 -30 -30 -30 -29 -29 -29 -28 -28 -28 -28 -28 -28 -28 -27 -25 -25 -25 -24 -23 -23 -23 -23 -23 -23 -22 -22 -22 -22 -21 -21 -21 -21 -21 -21 -22 -22
-31 -31 -30 -30 -30 -30 -30 -30 -30 -30 -30 -29 -29 -30 -29 -29 -29 -28 -28 -28 -28 -27 -25 -25 -25 -25 -23 -23 -23 -23 -23 -23 -23 -22 -22 -22 -22 -21 -22 -21 -21 -22 -22 -22
-31 -31 -31 -30 -30 -30 -29 -29 -29 -29 -29 -30 -29 -30 -30 -30 -30 -29 -27 -27 -28 -26 -25 -25 -25 -24 -24 -23 -23 -23 -23 -23 -23 -23 -23 -22 -22 -22 -22 -21 -21 -22 -22 -21

GFSNGP_500_temp_297.txt.gz
Temp
-21 -21 -21 -20 -20 -20 -19 -19 -19 -18 -18 -18 -17 -17 -16 -16 -16 -16 -16 -16 -16 -16 -16 -16 -16 -17 -16 -16 -16 -16 -15 -15 -15 -14 -14 -14 -14 -14 -14 -15 -16 -15 -15 -15
-22 -22 -21 -21 -21 -21 -20 -20 -20 -20 -19 -18 -18 -18 -18 -17 -17 -17 -17 -16 -16 -17 -17 -17 -16 -16 -16 -17 -16 -16 -16 -16 -15 -16 -17 -16 -15 -15 -15 -16 -16 -16 -15 -15
-22 -23 -22 -22 -22 -22 -21 -21 -21 -20 -20 -20 -19 -19 -19 -19 -18 -18 -18 -17 -17 -17 -17 -17 -17 -17 -17 -17 -16 -16 -16 -16 -16 -16 -17 -16 -16 -16 -16 -17 -16 -15 -16 -16
-23 -24 -23 -22 -22 -23 -23 -22 -21 -21 -21 -20 -20 -20 -20 -20 -20 -19 -18 -18 -18 -18 -18 -18 -17 -18 -18 -18 -17 -17 -16 -16 -16 -17 -17 -17 -17 -16 -16 -16 -16 -16 -16 -16
-25 -24 -24 -23 -23 -23 -23 -23 -22 -22 -22 -21 -21 -21 -21 -21 -21 -21 -20 -20 -19 -18 -18 -18 -18 -18 -19 -18 -18 -18 -17 -17 -17 -17 -17 -17 -17 -17 -16 -16 -16 -16 -16 -16
-26 -25 -25 -24 -23 -23 -23 -23 -23 -22 -22 -22 -22 -21 -21 -20 -21 -21 -21 -21 -21 -20 -19 -19 -18 -19 -19 -19 -19 -19 -18 -18 -17 -17 -17 -17 -17 -17 -17 -16 -16 -16 -16 -15
-27 -26 -25 -25 -24 -24 -23 -23 -23 -23 -23 -22 -22 -22 -21 -21 -21 -20 -20 -20 -20 -20 -20 -20 -19 -19 -19 -19 -19 -19 -19 -18 -18 -18 -17 -17 -17 -17 -17 -17 -17 -17 -16 -16
-27 -27 -25 -26 -26 -25 -25 -24 -24 -24 -23 -23 -23 -23 -22 -21 -21 -21 -21 -20 -20 -20 -20 -20 -20 -20 -20 -20 -20 -20 -19 -19 -19 -18 -18 -18 -18 -17 -17 -17 -17 -17 -17 -17
-29 -28 -27 -27 -27 -27 -26 -26 -25 -25 -24 -23 -23 -23 -23 -22 -22 -21 -21 -21 -21 -20 -20 -20 -20 -20 -21 -20 -20 -20 -20 -20 -20 -19 -19 -18 -18 -18 -17 -17 -17 -16 -17 -16
-30 -29 -29 -29 -28 -28 -28 -27 -28 -27 -26 -25 -24 -23 -23 -23 -23 -23 -22 -22 -21 -21 -21 -21 -20 -20 -21 -21 -20 -20 -20 -20 -20 -20 -19 -19 -19 -18 -18 -17 -17 -18 -17 -17
-29 -29 -29 -29 -29 -29 -29 -29 -28 -28 -27 -26 -25 -25 -24 -24 -24 -24 -23 -23 -22 -22 -22 -21 -21 -21 -20 -21 -21 -20 -20 -20 -20 -20 -19 -19 -19 -18 -18 -18 -18 -18 -18 -17
-29 -30 -30 -29 -30 -30 -30 -29 -29 -28 -28 -28 -27 -26 -26 -25 -24 -25 -25 -24 -24 -23 -23 -24 -23 -22 -21 -21 -21 -21 -21 -21 -20 -20 -20 -19 -19 -19 -18 -18 -18 -18 -18 -18
-30 -31 -30 -30 -30 -30 -30 -29 -29 -29 -28 -28 -28 -27 -27 -26 -26 -26 -26 -26 -25 -25 -24 -24 -24 -24 -22 -21 -21 -21 -21 -21 -21 -20 -20 -19 -19 -19 -19 -18 -17 -17 -17 -18
-34 -33 -31 -30 -30 -30 -30 -30 -30 -29 -29 -28 -28 -28 -27 -27 -27 -26 -26 -26 -26 -26 -25 -25 -24 -24 -24 -22 -22 -22 -21 -21 -21 -21 -20 -20 -19 -19 -18 -18 -19 -19 -19 -19
-35 -34 -32 -32 -31 -31 -31 -30 -30 -29 -29 -29 -28 -28 -28 -27 -27 -27 -27 -27 -27 -27 -26 -26 -25 -25 -25 -24 -22 -22 -22 -21 -22 -21 -21 -21 -20 -19 -19 -19 -19 -19 -19 -18
-36 -35 -35 -34 -33 -32 -32 -32 -31 -30 -30 -30 -29 -29 -28 -28 -28 -27 -27 -27 -27 -27 -27 -26 -26 -26 -25 -25 -23 -23 -23 -22 -22 -22 -21 -21 -20 -20 -20 -19 -18 -19 -19 -19
-36 -35 -35 -34 -33 -33 -33 -33 -32 -31 -31 -30 -29 -29 -29 -28 -28 -27 -27 -27 -27 -26 -26 -26 -26 -26 -26 -26 -25 -24 -24 -24 -23 -22 -21 -21 -20 -20 -20 -20 -19 -20 -20 -19
-36 -36 -35 -35 -35 -35 -35 -34 -34 -33 -32 -32 -31 -30 -30 -30 -29 -29 -28 -27 -27 -26 -26 -26 -26 -26 -26 -26 -26 -25 -25 -24 -24 -23 -22 -21 -21 -19 -20 -20 -20 -19 -19 -18
-37 -36 -36 -37 -37 -36 -36 -35 -34 -34 -34 -33 -32 -32 -31 -31 -30 -29 -29 -28 -27 -26 -26 -26 -26 -26 -26 -26 -26 -26 -26 -25 -25 -23 -23 -21 -20 -20 -20 -20 -20 -20 -19 -19
-38 -38 -38 -37 -37 -36 -35 -35 -34 -34 -34 -33 -33 -32 -32 -31 -30 -30 -29 -28 -27 -27 -27 -27 -26 -26 -26 -26 -26 -26 -26 -25 -24 -24 -23 -22 -22 -21 -20 -20 -20 -20 -20 -19
-38 -38 -38 -38 -38 -37 -35 -35 -34 -34 -34 -34 -33 -32 -32 -31 -30 -30 -30 -29 -29 -29 -28 -28 -27 -26 -26 -26 -26 -26 -26 -25 -25 -24 -23 -22 -22 -21 -21 -20 -20 -20 -20 -20
-39 -38 -38 -38 -38 -37 -37 -35 -34 -34 -34 -33 -33 -32 -32 -32 -31 -31 -31 -30 -30 -30 -30 -29 -28 -28 -27 -26 -25 -25 -25 -25 -24 -24 -23 -22 -22 -21 -21 -21 -20 -20 -19 -20
-39 -38 -38 -38 -38 -37 -35 -34 -34 -34 -33 -33 -33 -33 -32 -32 -31 -31 -31 -31 -31 -31 -31 -30 -29 -29 -28 -27 -26 -25 -25 -25 -24 -24 -23 -23 -22 -22 -21 -21 -20 -20 -20 -20
-38 -38 -37 -37 -36 -35 -34 -34 -33 -33 -32 -32 -32 -32 -31 -31 -31 -31 -30 -31 -31 -31 -31 -31 -31 -30 -28 -27 -26 -25 -25 -25 -25 -23 -23 -23 -23 -22 -21 -21 -20 -20 -20 -20
-37 -36 -35 -34 -33 -33 -32 -32 -32 -32 -31 -31 -31 -31 -31 -31 -30 -31 -31 -30 -30 -30 -30 -30 -30 -30 -30 -28 -27 -25 -25 -25 -25 -23 -23 -23 -22 -22 -21 -21 -20 -20 -20 -21
-33 -33 -32 -32 -32 -32 -32 -31 -31 -31 -31 -31 -31 -31 -31 -30 -30 -30 -30 -30 -30 -30 -29 -29 -29 -30 -30 -29 -28 -26 -25 -25 -25 -24 -23 -23 -23 -22 -21 -21 -21 -21 -21 -21
-32 -32 -32 -32 -31 -31 -31 -31 -31 -31 -30 -30 -30 -30 -30 -30 -30 -30 -30 -29 -29 -29 -29 -29 -29 -29 -29 -29 -28 -27 -25 -25 -25 -25 -23 -23 -23 -22 -22 -22 -21 -21 -21 -21

GFSNGP_500_temp_303.txt.gz
Temp
-22 -22 -21 -20 -19 -19 -18 -17 -20 -18 -18 -18 -18 -17 -16 -16 -16 -16 -16 -15 -15 -15 -15 -15 -15 -15 -15 -15 -15 -15 -15 -15 -15 -15 -15 -15 -15 -15 -15 -15 -14 -15 -14 -13
-22 -22 -22 -21 -20 -20 -19 -19 -18 -18 -19 -18 -17 -18 -17 -16 -16 -16 -16 -16 -16 -16 -16 -16 -15 -15 -15 -15 -15 -15 -15 -15 -15 -15 -15 -15 -15 -15 -15 -15 -15 -15 -14 -14
-23 -22 -21 -21 -21 -20 -20 -20 -20 -20 -20 -19 -18 -18 -18 -17 -17 -16 -17 -16 -16 -16 -16 -16 -16 -16 -16 -16 -15 -15 -15 -15 -15 -16 -16 -16 -15 -15 -15 -15 -15 -15 -15 -15
-23 -23 -22 -21 -21 -21 -20 -20 -20 -21 -21 -19 -19 -17 -18 -18 -18 -18 -17 -17 -17 -17 -16 -16 -16 -16 -16 -16 -16 -15 -15 -15 -16 -16 -16 -16 -15 -16 -16 -16 -15 -15 -15 -15
-24 -24 -23 -22 -21 -21 -21 -21 -21 -21 -21 -20 -19 -19 -19 -19 -19 -19 -18 -18 -18 -17 -17 -17 -17 -16 -16 -16 -16 -16 -16 -15 -15 -16 -16 -16 -16 -16 -15 -16 -15 -15 -15 -15
-26 -26 -25 -24 -22 -21 -21 -21 -21 -21 -21 -21 -20 -21 -21 -20 -19 -19 -19 -19 -19 -18 -18 -18 -18 -18 -17 -17 -17 -16 -16 -16 -16 -16 -16 -16 -16 -16 -15 -15 -15 -15 -15 -15
-27 -26 -25 -26 -23 -22 -23 -22 -21 -21 -21 -21 -21 -21 -21 -20 -20 -20 -20 -20 -20 -19 -19 -19 -19 -19 -18 -18 -17 -17 -17 -16 -16 -16 -16 -16 -16 -16 -16 -16 -16 -15 -15 -15
-29 -29 -27 -28 -26 -25 -26 -24 -23 -22 -21 -21 -21 -21 -21 -21 -21 -21 -20 -20 -20 -20 -19 -19 -19 -19 -19 -18 -18 -18 -17 -17 -17 -16 -16 -16 -16 -16 -16 -16 -16 -16 -16 -16
-32 -31 -31 -29 -27 -25 -25 -27 -26 -25 -24 -22 -22 -22 -21 -21 -21 -21 -21 -21 -21 -21 -20 -20 -20 -20 -20 -19 -19 -19 -18 -18 -18 -17 -17 -17 -17 -17 -17 -17 -16 -16 -16 -16
-31 -30 -29 -30 -29 -28 -27 -27 -27 -27 -27 -25 -24 -23 -22 -22 -21 -21 -22 -21 -21 -21 -21 -21 -21 -20 -20 -20 -20 -19 -19 -19 -18 -17 -17 -17 -17 -17 -17 -17 -17 -17 -17 -17
-30 -30 -30 -30 -30 -30 -29 -29 -28 -27 -27 -26 -26 -25 -24 -23 -23 -22 -22 -22 -22 -22 -21 -21 -21 -21 -20 -20 -20 -20 -20 -20 -19 -19 -18 -17 -17 -17 -18 -18 -18 -17 -18 -18
-33 -33 -34 -34 -32 -31 -33 -30 -29 -29 -28 -27 -26 -26 -26 -25 -25 -24 -23 -23 -23 -22 -22 -22 -22 -21 -21 -20 -20 -19 -20 -19 -19 -19 -19 -18 -18 -17 -17 -18 -18 -18 -18 -18
-35 -34 -34 -32 -30 -30 -32 -30 -29 -29 -29 -28 -28 -27 -27 -26 -25 -25 -25 -24 -24 -23 -23 -23 -22 -22 -22 -21 -21 -20 -20 -20 -20 -20 -19 -19 -19 -19 -18 -18 -18 -18 -18 -19
-37 -37 -34 -33 -33 -32 -33 -33 -32 -30 -29 -29 -29 -28 -28 -27 -26 -26 -25 -24 -24 -24 -24 -23 -23 -23 -22 -22 -22 -21 -21 -20 -20 -20 -20 -20 -20 -19 -19 -19 -19 -19 -19 -19
-37 -36 -36 -36 -35 -34 -34 -34 -33 -31 -30 -29 -29 -29 -29 -28 -28 -27 -27 -26 -25 -25 -25 -24 -24 -23 -23 -23 -23 -22 -22 -21 -21 -21 -20 -20 -20 -20 -20 -20 -20 -20 -20 -19
-39 -38 -38 -37 -37 -36 -36 -35 -34 -34 -32 -30 -29 -29 -29 -29 -28 -28 -28 -27 -27 -26 -26 -25 -25 -24 -24 -23 -23 -23 -23 -22 -22 -21 -21 -21 -21 -21 -21 -20 -21 -21 -20 -20
-39 -38 -38 -37 -37 -36 -36 -35 -35 -34 -33 -31 -30 -29 -29 -29 -29 -28 -28 -28 -28 -27 -27 -26 -26 -26 -25 -25 -25 -25 -24 -23 -22 -22 -22 -21 -21 -21 -21 -21 -21 -21 -21 -21
-39 -39 -38 -38 -38 -37 -37 -36 -35 -34 -34 -33 -33 -31 -31 -30 -29 -29 -29 -29 -28 -28 -27 -27 -27 -27 -27 -26 -26 -25 -25 -24 -23 -23 -22 -22 -22 -22 -22 -22 -22 -22 -22 -22
-39 -39 -39 -38 -38 -38 -37 -37 -37 -36 -36 -35 -35 -33 -33 -31 -31 -30 -30 -29 -29 -28 -27 -27 -27 -27 -27 -27 -27 -26 -26 -25 -25 -24 -23 -23 -22 -22 -22 -22 -22 -22 -22 -22
-39 -39 -39 -39 -39 -38 -38 -38 -37 -37 -36 -36 -36 -35 -34 -34 -33 -32 -31 -29 -29 -28 -28 -28 -28 -27 -27 -27 -27 -27 -27 -26 -26 -25 -25 -24 -23 -23 -24 -24 -23 -23 -23 -22
-39 -39 -39 -39 -38 -38 -38 -38 -38 -38 -37 -37 -36 -35 -35 -35 -34 -33 -32 -30 -29 -30 -29 -29 -28 -28 -27 -27 -27 -26 -26 -26 -26 -26 -26 -25 -25 -25 -25 -25 -25 -24 -24 -23
-39 -39 -39 -39 -39 -38 -38 -38 -38 -38 -37 -36 -36 -35 -35 -35 -34 -33 -33 -32 -31 -31 -31 -30 -29 -29 -28 -28 -27 -27 -26 -26 -26 -26 -25 -25 -25 -25 -25 -25 -25 -25 -25 -24
-38 -38 -38 -38 -39 -38 -38 -38 -37 -36 -36 -36 -36 -35 -35 -34 -34 -33 -33 -32 -32 -32 -31 -31 -30 -30 -29 -28 -28 -27 -27 -26 -26 -26 -26 -26 -25 -25 -26 -26 -25 -25 -25 -24
-37 -37 -37 -37 -38 -37 -37 -36 -36 -35 -35 -34 -34 -34 -34 -34 -33 -33 -33 -33 -33 -32 -32 -32 -31 -31 -30 -29 -29 -28 -28 -27 -27 -26 -26 -26 -25 -25 -25 -25 -26 -25 -25 -25
-34 -34 -34 -34 -34 -35 -35 -35 -34 -33 -33 -33 -33 -33 -33 -33 -32 -33 -32 -32 -32 -32 -31 -31 -32 -31 -31 -30 -30 -30 -29 -29 -28 -28 -27 -26 -26 -26 -25 -25 -25 -26 -25 -25
-32 -32 -32 -32 -32 -32 -32 -32 -32 -32 -32 -32 -32 -32 -32 -32 -32 -32 -32 -32 -31 -31 -31 -31 -31 -31 -31 -31 -31 -31 -30 -30 -30 -29 -28 -27 -27 -26 -25 -25 -25 -26 -25 -25
-32 -32 -32 -32 -32 -32 -32 -32 -32 -32 -31 -31 -31 -31 -31 -31 -31 -31 -31 -31 -31 -31 -31 -31 -31 -31 -31 -31 -31 -31 -30 -30 -30 -30 -30 -28 -27 -27 -26 -25 -25 -25 -25 -25

GFSNGP_500_temp_306.txt.gz
Temp
-22 -21 -20 -20 -20 -20 -19 -19 -18 -18 -18 -18 -17 -18 -17 -17 -16 -15 -15 -15 -14 -14 -14 -14 -14 -14 -15 -15 -15 -15 -15 -14 -14 -14 -14 -14 -14 -14 -14 -14 -15 -14 -15 -15
-23 -22 -21 -21 -21 -20 -20 -19 -18 -19 -18 -18 -18 -18 -17 -18 -17 -16 -15 -15 -15 -15 -15 -14 -14 -14 -14 -15 -15 -15 -15 -15 -14 -14 -15 -15 -15 -16 -15 -15 -15 -15 -15 -15
-24 -23 -22 -21 -21 -21 -20 -20 -19 -19 -19 -19 -18 -16 -17 -18 -18 -17 -16 -16 -16 -15 -15 -15 -15 -14 -14 -15 -15 -15 -15 -15 -15 -15 -16 -16 -16 -16 -15 -15 -15 -15 -15 -15
-24 -24 -23 -22 -22 -21 -21 -20 -20 -20 -19 -19 -18 -18 -18 -18 -18 -18 -17 -16 -16 -16 -16 -16 -15 -15 -15 -15 -15 -15 -15 -15 -15 -15 -15 -15 -15 -15 -15 -15 -15 -15 -16 -15
-26 -25 -24 -23 -22 -22 -21 -21 -21 -21 -20 -19 -19 -19 -19 -19 -19 -18 -18 -17 -17 -17 -17 -17 -16 -16 -16 -15 -15 -15 -15 -15 -15 -15 -15 -15 -15 -15 -16 -15 -16 -15 -16 -15
-28 -27 -26 -26 -24 -23 -22 -22 -22 -21 -21 -20 -19 -19 -19 -20 -19 -19 -19 -19 -19 -18 -18 -18 -17 -17 -16 -16 -16 -15 -15 -15 -15 -15 -15 -15 -16 -16 -16 -16 -15 -15 -15 -15
-29 -28 -27 -28 -28 -24 -24 -23 -22 -23 -22 -22 -21 -21 -20 -19 -20 -20 -20 -20 -20 -19 -19 -19 -18 -18 -17 -17 -17 -16 -16 -16 -16 -16 -15 -16 -16 -16 -16 -16 -16 -16 -15 -15
-31 -31 -29 -30 -30 -28 -27 -25 -25 -24 -23 -24 -22 -22 -21 -21 -21 -21 -21 -20 -20 -20 -20 -19 -19 -19 -18 -18 -17 -17 -17 -16 -16 -16 -16 -16 -16 -16 -16 -16 -16 -16 -16 -16
-32 -31 -31 -31 -30 -30 -29 -29 -27 -26 -25 -24 -24 -24 -23 -22 -22 -22 -21 -21 -21 -21 -20 -20 -20 -19 -19 -18 -18 -18 -17 -17 -17 -16 -16 -17 -17 -16 -16 -16 -16 -16 -16 -16
-32 -31 -31 -31 -31 -31 -31 -31 -31 -29 -28 -27 -25 -24 -23 -23 -23 -22 -22 -21 -21 -21 -21 -20 -20 -20 -20 -19 -19 -19 -18 -18 -17 -17 -17 -17 -17 -17 -16 -16 -16 -16 -16 -16
-33 -32 -32 -31 -31 -32 -32 -32 -32 -32 -30 -29 -28 -26 -24 -23 -23 -23 -23 -21 -21 -21 -21 -21 -21 -21 -21 -20 -20 -20 -20 -19 -19 -18 -18 -17 -17 -18 -18 -17 -17 -17 -17 -16
-35 -34 -34 -33 -32 -31 -32 -32 -32 -32 -32 -31 -29 -28 -26 -25 -24 -23 -22 -22 -22 -21 -21 -21 -21 -21 -21 -21 -20 -20 -20 -20 -20 -19 -19 -19 -18 -18 -18 -18 -18 -17 -17 -17
-36 -35 -35 -34 -34 -33 -32 -32 -32 -32 -32 -31 -31 -29 -28 -26 -26 -26 -25 -23 -22 -22 -21 -21 -21 -21 -21 -21 -21 -21 -20 -20 -20 -20 -19 -19 -19 -19 -18 -18 -18 -18 -17 -17
-36 -36 -35 -35 -34 -34 -34 -34 -32 -32 -32 -32 -31 -30 -29 -28 -27 -27 -27 -26 -26 -25 -23 -22 -22 -22 -22 -22 -21 -21 -20 -20 -20 -20 -20 -20 -20 -19 -18 -19 -18 -18 -18 -18
-37 -37 -37 -36 -36 -35 -34 -34 -34 -34 -33 -33 -32 -30 -29 -28 -28 -28 -28 -27 -26 -26 -25 -24 -23 -23 -22 -22 -21 -21 -21 -21 -20 -20 -20 -20 -20 -20 -19 -19 -19 -19 -19 -18
-38 -38 -38 -37 -37 -37 -36 -35 -34 -34 -34 -34 -34 -33 -30 -29 -28 -29 -29 -28 -28 -26 -26 -25 -24 -23 -24 -24 -23 -22 -22 -22 -22 -21 -21 -21 -20 -20 -20 -20 -20 -20 -19 -20
-38 -38 -38 -38 -37 -37 -37 -37 -37 -36 -35 -34 -33 -32 -31 -30 -29 -29 -29 -28 -28 -28 -27 -26 -25 -25 -25 -24 -24 -23 -23 -23 -22 -22 -21 -21 -21 -21 -20 -20 -20 -20 -20 -20
-38 -39 -38 -38 -38 -38 -37 -37 -37 -37 -36 -35 -34 -34 -33 -31 -30 -30 -29 -29 -29 -28 -28 -27 -27 -26 -25 -25 -25 -25 -24 -24 -23 -23 -22 -22 -21 -21 -21 -21 -21 -21 -21 -21
-38 -38 -39 -38 -38 -38 -38 -38 -37 -37 -37 -37 -36 -35 -34 -33 -32 -32 -31 -29 -29 -29 -28 -28 -28 -27 -27 -27 -27 -26 -26 -25 -25 -24 -24 -23 -23 -22 -22 -22 -22 -22 -22 -22
-39 -39 -39 -39 -39 -39 -38 -38 -38 -37 -37 -37 -36 -36 -36 -35 -35 -34 -32 -31 -30 -29 -28 -28 -28 -28 -27 -27 -27 -27 -27 -26 -26 -26 -25 -25 -24 -23 -23 -23 -23 -23 -22 -22
-39 -39 -39 -39 -38 -38 -38 -39 -38 -37 -37 -37 -37 -36 -36 -35 -36 -36 -34 -33 -31 -30 -30 -29 -29 -28 -28 -28 -28 -27 -27 -27 -27 -27 -26 -26 -26 -25 -25 -24 -24 -23 -23 -23
-38 -38 -38 -38 -38 -38 -38 -38 -38 -38 -37 -37 -37 -36 -35 -35 -36 -35 -35 -33 -32 -32 -31 -31 -30 -29 -29 -28 -28 -27 -27 -27 -27 -27 -27 -27 -26 -26 -26 -25 -25 -24 -24 -24
-36 -36 -36 -37 -37 -37 -37 -37 -38 -38 -38 -37 -37 -36 -35 -36 -36 -35 -35 -35 -34 -34 -33 -32 -31 -31 -30 -29 -28 -28 -27 -27 -27 -26 -26 -26 -26 -26 -26 -26 -26 -25 -25 -25
-34 -34 -34 -34 -34 -35 -35 -36 -36 -36 -37 -36 -35 -35 -35 -35 -35 -35 -34 -34 -35 -34 -34 -33 -33 -32 -31 -30 -30 -29 -28 -28 -27 -27 -27 -27 -27 -26 -26 -26 -26 -26 -26 -25
-32 -32 -32 -32 -32 -32 -33 -33 -33 -34 -34 -34 -34 -34 -34 -33 -33 -33 -33 -33 -33 -33 -33 -32 -32 -32 -32 -31 -31 -31 -30 -30 -29 -29 -28 -28 -27 -27 -26 -26 -26 -26 -25 -25
-32 -32 -32 -32 -32 -32 -32 -32 -32 -32 -32 -32 -32 -33 -33 -32 -32 -32 -32 -32 -32 -32 -32 -32 -32 -32 -32 -32 -31 -31 -31 -30 -30 -30 -29 -29 -28 -28 -27 -27 -26 -26 -25 -25
-31 -31 -31 -32 -32 -32 -32 -32 -32 -32 -32 -32 -32 -32 -32 -32 -31 -31 -32 -32 -32 -31 -31 -31 -31 -31 -31 -31 -31 -31 -31 -31 -31 -31 -31 -30 -30 -30 -29 -28 -27 -26 -26 -25